| time (UTC) | temp F | wind direction | speed MPH | gust MPH | rain 1hr in | rain 24hr in | rain mn in | humidity % | barometer mb |
| 20260905093021 | 57 | 110 | 1.0 | 3.0 | 0.00 | 0.00 | 0.00 | 76 | 1014.5 |
| 20260905092046 | 58 | 130 | 0.0 | 0.0 | 0.00 | 0.00 | 0.00 | 76 | 1014.4 |
| 20260905091005 | 58 | 121 | 0.0 | 0.0 | 0.00 | 0.00 | 0.00 | 75 | 1014.4 |
| 20260905090024 | 58 | 116 | 0.0 | 0.0 | 0.00 | 0.00 | 0.00 | 74 | 1014.4 |
| 20260905085011 | 58 | 117 | 0.0 | 0.0 | 0.00 | 0.01 | 0.00 | 74 | 1014.4 |
| 20260905084008 | 59 | 117 | 0.0 | 3.0 | 0.00 | 0.01 | 0.00 | 73 | 1014.5 |
| 20260905083028 | 59 | 116 | 2.0 | 3.0 | 0.00 | 0.01 | 0.00 | 72 | 1014.5 |
| 20260905082027 | 59 | 137 | 0.0 | 2.0 | 0.00 | 0.01 | 0.00 | 71 | 1014.6 |
| 20260905081011 | 60 | 145 | 1.0 | 3.0 | 0.00 | 0.01 | 0.00 | 70 | 1014.6 |
| 20260905080012 | 60 | 130 | 2.0 | 4.0 | 0.00 | 0.01 | 0.00 | 69 | 1014.4 |
| 20260905075012 | 60 | 132 | 2.0 | 5.0 | 0.00 | 0.03 | 0.00 | 69 | 1014.3 |
| 20260905074035 | 61 | 129 | 3.0 | 5.0 | 0.00 | 0.03 | 0.00 | 68 | 1014.2 |
| 20260905073016 | 61 | 134 | 2.0 | 4.0 | 0.00 | 0.03 | 0.00 | 68 | 1014.1 |
| 20260905072020 | 61 | 144 | 1.0 | 3.0 | 0.00 | 0.03 | 0.00 | 67 | 1014.1 |
| 20260905071011 | 62 | 126 | 0.0 | 2.0 | 0.00 | 0.03 | 0.00 | 67 | 1014.1 |
| 20260905070019 | 62 | 130 | 2.0 | 4.0 | 0.00 | 0.03 | 0.00 | 66 | 1014.1 |
| 20260905065021 | 62 | 113 | 2.0 | 5.0 | 0.00 | 0.03 | 0.03 | 66 | 1014.0 |
| 20260905064018 | 62 | 105 | 3.0 | 6.0 | 0.00 | 0.03 | 0.03 | 66 | 1014.0 |
| 20260905063016 | 63 | 128 | 2.0 | 4.0 | 0.00 | 0.03 | 0.03 | 66 | 1013.9 |
| 20260905062010 | 63 | 127 | 2.0 | 4.0 | 0.00 | 0.03 | 0.03 | 67 | 1013.9 |
| 20260905061026 | 63 | 114 | 2.0 | 4.0 | 0.00 | 0.03 | 0.03 | 66 | 1014.0 |
| 20260905060026 | 63 | 110 | 2.0 | 4.0 | 0.00 | 0.03 | 0.03 | 66 | 1014.1 |
| 20260905055020 | 63 | 88 | 2.0 | 4.0 | 0.00 | 0.03 | 0.03 | 66 | 1014.1 |
| 20260905054017 | 64 | 124 | 0.0 | 0.0 | 0.00 | 0.03 | 0.03 | 65 | 1014.0 |
| 20260905053013 | 64 | 124 | 0.0 | 2.0 | 0.00 | 0.03 | 0.03 | 64 | 1014.1 |
| 20260905052026 | 64 | 123 | 1.0 | 2.0 | 0.00 | 0.03 | 0.03 | 64 | 1014.1 |
| 20260905051046 | 65 | 124 | 1.0 | 2.0 | 0.00 | 0.03 | 0.03 | 63 | 1014.0 |
| 20260905050024 | 65 | 188 | 0.0 | 3.0 | 0.00 | 0.03 | 0.03 | 62 | 1014.0 |
| 20260905045020 | 66 | 183 | 2.0 | 5.0 | 0.00 | 0.03 | 0.03 | 61 | 1014.0 |
| 20260905044018 | 66 | 178 | 2.0 | 6.0 | 0.00 | 0.03 | 0.03 | 60 | 1014.0 |
| 20260905043018 | 67 | 174 | 2.0 | 4.0 | 0.00 | 0.03 | 0.03 | 59 | 1013.9 |
| 20260905042012 | 67 | 195 | 2.0 | 5.0 | 0.00 | 0.03 | 0.03 | 58 | 1013.9 |
| 20260905041013 | 68 | 172 | 2.0 | 4.0 | 0.00 | 0.03 | 0.03 | 56 | 1013.5 |
| 20260905040013 | 68 | 260 | 1.0 | 4.0 | 0.00 | 0.03 | 0.03 | 54 | 1013.4 |
| 20260905035011 | 69 | 170 | 1.0 | 4.0 | 0.00 | 0.03 | 0.03 | 52 | 1013.3 |
| 20260905034012 | 69 | 236 | 1.0 | 5.0 | 0.00 | 0.03 | 0.03 | 50 | 1013.3 |
| 20260905033017 | 69 | 213 | 3.0 | 12.0 | 0.00 | 0.03 | 0.03 | 45 | 1013.1 |
| 20260905032014 | 70 | 177 | 2.0 | 4.0 | 0.00 | 0.03 | 0.03 | 43 | 1013.0 |
| 20260905031016 | 70 | 199 | 2.0 | 5.0 | 0.00 | 0.03 | 0.03 | 42 | 1012.8 |
| 20260905030039 | 71 | 197 | 2.0 | 6.0 | 0.00 | 0.03 | 0.03 | 40 | 1012.8 |
| 20260905025008 | 72 | 180 | 2.0 | 6.0 | 0.00 | 0.03 | 0.03 | 38 | 1012.8 |
| 20260905024030 | 72 | 170 | 2.0 | 7.0 | 0.00 | 0.03 | 0.03 | 38 | 1012.7 |
| 20260905023009 | 73 | 195 | 2.0 | 5.0 | 0.00 | 0.03 | 0.03 | 38 | 1012.7 |
| 20260905022025 | 74 | 162 | 2.0 | 5.0 | 0.00 | 0.03 | 0.03 | 38 | 1012.6 |
| 20260905021026 | 75 | 184 | 1.0 | 6.0 | 0.00 | 0.03 | 0.03 | 39 | 1012.6 |
| 20260905020008 | 75 | 232 | 4.0 | 8.0 | 0.00 | 0.03 | 0.03 | 38 | 1012.6 |
| 20260905015043 | 76 | 245 | 3.0 | 8.0 | 0.00 | 0.03 | 0.03 | 37 | 1012.6 |
| 20260905014022 | 77 | 243 | 3.0 | 9.0 | 0.00 | 0.03 | 0.03 | 38 | 1012.7 |
| 20260905013023 | 78 | 228 | 3.0 | 6.0 | 0.00 | 0.03 | 0.03 | 38 | 1012.6 |
| 20260905012022 | 78 | 170 | 3.0 | 9.0 | 0.00 | 0.03 | 0.03 | 38 | 1012.5 |
| 20260905011029 | 78 | 245 | 2.0 | 6.0 | 0.00 | 0.03 | 0.03 | 40 | 1012.5 |
| 20260905010026 | 78 | 199 | 4.0 | 9.0 | 0.00 | 0.03 | 0.03 | 39 | 1012.4 |
| 20260905005009 | 78 | 228 | 2.0 | 6.0 | 0.00 | 0.03 | 0.03 | 37 | 1012.5 |
| 20260905004007 | 78 | 211 | 2.0 | 5.0 | 0.00 | 0.03 | 0.03 | 38 | 1012.5 |
| 20260905003009 | 79 | 232 | 2.0 | 7.0 | 0.00 | 0.03 | 0.03 | 38 | 1012.4 |
| 20260905002043 | 79 | 166 | 3.0 | 10.0 | 0.00 | 0.03 | 0.03 | 37 | 1012.5 |
| 20260905001008 | 79 | 232 | 4.0 | 7.0 | 0.00 | 0.03 | 0.03 | 38 | 1012.6 |
| 20260905000011 | 80 | 246 | 2.0 | 8.0 | 0.00 | 0.03 | 0.03 | 39 | 1012.6 |
| 20260904235015 | 79 | 174 | 1.0 | 8.0 | 0.00 | 0.03 | 0.03 | 38 | 1012.8 |
| 20260904234015 | 80 | 203 | 3.0 | 7.0 | 0.00 | 0.03 | 0.03 | 40 | 1012.6 |
| 20260904233016 | 78 | 286 | 1.0 | 5.0 | 0.00 | 0.03 | 0.03 | 39 | 1012.8 |
| 20260904232020 | 78 | 270 | 2.0 | 9.0 | 0.00 | 0.03 | 0.03 | 41 | 1012.9 |
| 20260904231020 | 78 | 169 | 4.0 | 9.0 | 0.00 | 0.03 | 0.03 | 39 | 1013.1 |
| 20260904230021 | 78 | 181 | 3.0 | 8.0 | 0.00 | 0.03 | 0.03 | 39 | 1013.3 |
| 20260904225043 | 78 | 157 | 5.0 | 10.0 | 0.00 | 0.03 | 0.03 | 39 | 1013.2 |
| 20260904224018 | 78 | 150 | 4.0 | 10.0 | 0.00 | 0.03 | 0.03 | 41 | 1013.3 |
| 20260904223020 | 76 | 250 | 1.0 | 4.0 | 0.00 | 0.03 | 0.03 | 44 | 1013.4 |
| 20260904222022 | 76 | 199 | 5.0 | 10.0 | 0.00 | 0.03 | 0.03 | 43 | 1013.4 |
| 20260904221021 | 76 | 70 | 3.0 | 10.0 | 0.00 | 0.03 | 0.03 | 43 | 1013.4 |
| 20260904220023 | 76 | 286 | 4.0 | 11.0 | 0.00 | 0.03 | 0.03 | 45 | 1013.4 |
| 20260904215019 | 75 | 244 | 1.0 | 12.0 | 0.00 | 0.03 | 0.03 | 44 | 1013.4 |
| 20260904214020 | 75 | 170 | 3.0 | 8.0 | 0.00 | 0.03 | 0.03 | 44 | 1013.3 |
| 20260904213018 | 74 | 239 | 4.0 | 10.0 | 0.00 | 0.03 | 0.03 | 46 | 1013.4 |
| 20260904212021 | 74 | 239 | 4.0 | 11.0 | 0.00 | 0.03 | 0.03 | 47 | 1013.6 |
| 20260904211039 | 74 | 254 | 5.0 | 10.0 | 0.00 | 0.03 | 0.03 | 47 | 1013.5 |
| 20260904210020 | 74 | 174 | 5.0 | 11.0 | 0.00 | 0.03 | 0.03 | 49 | 1013.5 |
| 20260904205024 | 74 | 256 | 5.0 | 10.0 | 0.00 | 0.03 | 0.03 | 50 | 1013.6 |
| 20260904204019 | 74 | 238 | 3.0 | 8.0 | 0.00 | 0.03 | 0.03 | 50 | 1013.5 |
| 20260904203021 | 74 | 260 | 3.0 | 8.0 | 0.00 | 0.03 | 0.03 | 50 | 1013.6 |
| 20260904202023 | 75 | 157 | 6.0 | 10.0 | 0.00 | 0.03 | 0.03 | 51 | 1013.8 |
| 20260904201006 | 73 | 138 | 3.0 | 9.0 | 0.00 | 0.03 | 0.03 | 53 | 1013.8 |
| 20260904200008 | 74 | 235 | 2.0 | 8.0 | 0.00 | 0.03 | 0.03 | 53 | 1013.8 |
| 20260904195011 | 74 | 161 | 2.0 | 7.0 | 0.00 | 0.03 | 0.03 | 55 | 1013.9 |
| 20260904194014 | 74 | 66 | 2.0 | 8.0 | 0.00 | 0.03 | 0.03 | 55 | 1013.9 |
| 20260904193013 | 73 | 107 | 4.0 | 8.0 | 0.00 | 0.03 | 0.03 | 55 | 1014.1 |
| 20260904192013 | 73 | 146 | 4.0 | 8.0 | 0.00 | 0.03 | 0.03 | 56 | 1014.3 |
| 20260904191017 | 72 | 246 | 3.0 | 8.0 | 0.00 | 0.03 | 0.03 | 59 | 1014.4 |
| 20260904190009 | 72 | 181 | 3.0 | 9.0 | 0.00 | 0.03 | 0.03 | 58 | 1014.3 |
| 20260904185010 | 71 | 146 | 5.0 | 11.0 | 0.00 | 0.03 | 0.03 | 61 | 1014.3 |
| 20260904184014 | 70 | 116 | 4.0 | 11.0 | 0.00 | 0.03 | 0.03 | 62 | 1014.5 |
| 20260904183010 | 71 | 155 | 5.0 | 10.0 | 0.00 | 0.03 | 0.03 | 64 | 1014.4 |
| 20260904182011 | 70 | 132 | 6.0 | 10.0 | 0.00 | 0.03 | 0.03 | 64 | 1014.4 |
| 20260904181008 | 70 | 91 | 5.0 | 11.0 | 0.00 | 0.03 | 0.03 | 65 | 1014.5 |
| 20260904180008 | 69 | 180 | 7.0 | 13.0 | 0.00 | 0.03 | 0.03 | 66 | 1014.5 |
| 20260904175008 | 69 | 141 | 5.0 | 10.0 | 0.00 | 0.03 | 0.03 | 68 | 1014.6 |
| 20260904174009 | 69 | 154 | 1.0 | 8.0 | 0.00 | 0.03 | 0.03 | 70 | 1014.5 |
| 20260904173014 | 67 | 245 | 2.0 | 9.0 | 0.00 | 0.03 | 0.03 | 73 | 1014.5 |
| 20260904172010 | 68 | 117 | 3.0 | 8.0 | 0.00 | 0.03 | 0.03 | 72 | 1014.4 |
| 20260904171013 | 67 | 195 | 6.0 | 12.0 | 0.00 | 0.03 | 0.03 | 73 | 1014.4 |
| 20260904170019 | 66 | 217 | 5.0 | 11.0 | 0.00 | 0.03 | 0.03 | 73 | 1014.3 |
| 20260904165015 | 66 | 124 | 6.0 | 11.0 | 0.00 | 0.03 | 0.03 | 74 | 1014.2 |
| 20260904164014 | 65 | 128 | 3.0 | 10.0 | 0.00 | 0.03 | 0.03 | 78 | 1014.2 |
| 20260904163036 | 65 | 170 | 6.0 | 11.0 | 0.00 | 0.03 | 0.03 | 80 | 1014.1 |
| 20260904162015 | 65 | 145 | 6.0 | 10.0 | 0.00 | 0.03 | 0.03 | 80 | 1014.0 |
| 20260904161016 | 64 | 170 | 2.0 | 6.0 | 0.00 | 0.03 | 0.03 | 82 | 1013.9 |
| 20260904160041 | 63 | 186 | 4.0 | 8.0 | 0.00 | 0.03 | 0.03 | 84 | 1013.9 |
| 20260904155038 | 62 | 170 | 4.0 | 10.0 | 0.00 | 0.03 | 0.03 | 86 | 1013.9 |
| 20260904154022 | 61 | 167 | 4.0 | 8.0 | 0.00 | 0.03 | 0.03 | 88 | 1013.9 |
| 20260904153025 | 60 | 151 | 4.0 | 10.0 | 0.00 | 0.03 | 0.03 | 88 | 1013.7 |
| 20260904152022 | 60 | 170 | 5.0 | 8.0 | 0.00 | 0.03 | 0.03 | 89 | 1013.7 |
| 20260904151024 | 60 | 184 | 2.0 | 6.0 | 0.00 | 0.03 | 0.03 | 89 | 1013.7 |
| 20260904150009 | 60 | 178 | 4.0 | 8.0 | 0.00 | 0.03 | 0.03 | 89 | 1013.5 |
| 20260904145006 | 60 | 207 | 1.0 | 6.0 | 0.00 | 0.03 | 0.03 | 90 | 1013.5 |
| 20260904144008 | 60 | 188 | 0.0 | 4.0 | 0.00 | 0.03 | 0.03 | 90 | 1013.4 |
| 20260904143012 | 60 | 180 | 1.0 | 4.0 | 0.00 | 0.03 | 0.03 | 90 | 1013.3 |
| 20260904142010 | 60 | 228 | 2.0 | 6.0 | 0.00 | 0.03 | 0.03 | 90 | 1013.2 |
| 20260904141010 | 60 | 176 | 2.0 | 6.0 | 0.00 | 0.03 | 0.03 | 90 | 1013.0 |
| 20260904140035 | 60 | 191 | 2.0 | 4.0 | 0.00 | 0.03 | 0.03 | 90 | 1013.0 |
| 20260904135013 | 60 | 168 | 3.0 | 7.0 | 0.00 | 0.03 | 0.03 | 90 | 1012.6 |
| 20260904134018 | 60 | 174 | 3.0 | 7.0 | 0.00 | 0.03 | 0.03 | 90 | 1012.4 |
| 20260904133020 | 60 | 172 | 4.0 | 7.0 | 0.00 | 0.03 | 0.03 | 90 | 1012.5 |
| 20260904132014 | 61 | 161 | 2.0 | 5.0 | 0.00 | 0.03 | 0.03 | 91 | 1012.5 |
| 20260904131019 | 61 | 159 | 2.0 | 6.0 | 0.00 | 0.03 | 0.03 | 91 | 1012.5 |
| 20260904130021 | 61 | 180 | 3.0 | 7.0 | 0.00 | 0.03 | 0.03 | 91 | 1012.4 |
| 20260904125023 | 61 | 153 | 3.0 | 6.0 | 0.00 | 0.03 | 0.03 | 91 | 1012.3 |
| 20260904124020 | 61 | 187 | 3.0 | 6.0 | 0.00 | 0.03 | 0.03 | 91 | 1012.3 |
| 20260904123024 | 61 | 145 | 2.0 | 8.0 | 0.00 | 0.03 | 0.03 | 91 | 1012.2 |
| 20260904122007 | 61 | 175 | 3.0 | 8.0 | 0.00 | 0.03 | 0.03 | 91 | 1012.2 |
| 20260904121007 | 61 | 137 | 3.0 | 8.0 | 0.00 | 0.03 | 0.03 | 91 | 1012.0 |
| 20260904120015 | 62 | 157 | 3.0 | 7.0 | 0.00 | 0.03 | 0.03 | 91 | 1012.0 |
| 20260904115040 | 62 | 176 | 1.0 | 6.0 | 0.00 | 0.03 | 0.03 | 91 | 1012.0 |
| 20260904114019 | 62 | 164 | 2.0 | 5.0 | 0.00 | 0.03 | 0.03 | 91 | 1012.0 |
| 20260904113023 | 62 | 131 | 2.0 | 5.0 | 0.00 | 0.03 | 0.03 | 91 | 1012.0 |
| 20260904112007 | 62 | 181 | 2.0 | 6.0 | 0.00 | 0.03 | 0.03 | 91 | 1012.0 |
| 20260904111006 | 62 | 179 | 3.0 | 6.0 | 0.00 | 0.03 | 0.03 | 91 | 1011.9 |
| 20260904110027 | 62 | 139 | 3.0 | 4.0 | 0.00 | 0.03 | 0.03 | 91 | 1011.8 |
| 20260904105007 | 62 | 185 | 1.0 | 6.0 | 0.00 | 0.03 | 0.03 | 90 | 1011.9 |
| 20260904104024 | 62 | 151 | 3.0 | 6.0 | 0.00 | 0.03 | 0.03 | 91 | 1011.7 |
| 20260904103007 | 62 | 112 | 3.0 | 4.0 | 0.00 | 0.03 | 0.03 | 91 | 1011.6 |
| 20260904102014 | 62 | 174 | 1.0 | 4.0 | 0.00 | 0.03 | 0.03 | 90 | 1011.5 |
| 20260904101014 | 62 | 169 | 2.0 | 6.0 | 0.00 | 0.03 | 0.03 | 90 | 1011.6 |
| 20260904100016 | 62 | 199 | 2.0 | 6.0 | 0.00 | 0.03 | 0.03 | 90 | 1011.6 |
| 20260904095041 | 62 | 158 | 2.0 | 5.0 | 0.00 | 0.03 | 0.03 | 90 | 1011.6 |
| 20260904094040 | 63 | 186 | 2.0 | 5.0 | 0.00 | 0.03 | 0.03 | 90 | 1011.6 |